Terminal Aerodrome Forecast
Issued by NWS

Home | Current Version | Previous Version | Text Only | Print | Product List | Glossary On
Versions: 1 2 3 4 5 6 7 8 9 10 11 12 13 14 15 16 17 18 19 20 21 22 23 24 25 26 27 28 29 30 31 32 33 34 35 36 37 38 39 40 41 42 43 44 45 46 47 48 49 50
000
FTUS41 KCTP 011740
TAFJST
TAF
KJST 011740Z 0118/0218 19005KT 1SM -SN BR OVC006
     FM020400 15008KT 1 1/2SM -FZRA BR OVC007
     FM021000 19008KT 4SM -RA BR SCT007 OVC025
     FM021400 25015G25KT 2SM -SHSN OVC015=

USA.gov is the U.S. government's official web portal to all federal, state and local government web resources and services.